Theta_e
296 297 297 297 298 298 298 300 306 306 302 297 295 293 293 292 291 291 291 291 290 290 289 289 289 288 289 289 288 291 294 294 294 294 295 295 296 296
295 296 296 296 296 297 297 298 298 303 308 298 294 294 293 292 291 291 291 290 290 290 289 289 289 289 289 288 288 289 292 292 292 293 293 294 294 295
295 295 295 296 296 297 296 296 296 296 302 296 294 293 293 292 291 291 290 290 290 291 289 289 289 289 288 288 288 288 287 289 290 291 291 292 293 293
295 295 295 295 295 295 296 296 296 296 297 299 294 293 292 291 291 290 290 290 290 291 290 289 289 288 288 288 288 286 286 287 288 288 289 289 291 292
296 296 295 294 295 295 295 295 295 294 294 295 294 292 291 290 290 290 290 291 290 291 290 290 288 288 288 288 287 286 285 286 287 287 288 289 290 291
296 296 295 295 296 295 295 295 295 293 292 292 293 292 291 291 290 291 291 290 290 289 288 288 288 289 288 288 288 286 284 286 286 286 287 289 290 290
296 296 296 296 297 296 296 295 295 294 292 292 293 292 292 291 291 292 289 289 289 288 287 286 288 287 287 287 287 284 285 285 285 286 288 288 289 289
298 297 297 297 296 295 296 296 296 295 293 293 293 293 293 292 291 290 289 289 289 286 285 286 284 285 285 285 286 284 284 285 284 286 287 287 287 288
300 299 297 297 296 295 294 293 293 294 294 295 293 293 292 291 290 288 288 287 287 286 283 284 285 284 283 284 286 284 285 283 284 285 286 286 286 287
300 300 299 298 298 295 293 293 292 291 291 292 292 292 291 290 289 287 286 284 284 284 283 283 284 283 282 283 285 284 283 283 284 284 284 285 285 286
298 298 298 298 297 296 293 292 292 291 291 291 290 289 289 288 288 286 285 284 285 284 282 282 283 282 282 282 284 282 282 283 283 283 284 284 285 285
297 298 297 298 297 294 292 291 291 290 291 289 287 287 287 286 285 283 282 283 283 284 282 281 281 281 282 282 282 281 281 282 282 283 283 284 284 284
295 295 296 296 296 294 292 291 291 290 289 289 288 287 286 284 283 281 281 280 282 282 281 280 280 280 281 281 280 280 281 281 281 281 283 283 283 283
298 297 297 295 293 292 292 290 290 289 289 287 287 286 284 282 281 280 280 280 279 280 279 279 279 279 279 279 280 281 280 280 281 281 282 282 283 283
296 296 295 294 291 291 291 291 290 288 287 286 285 284 283 281 280 280 279 279 279 279 279 278 278 278 278 278 279 279 280 280 281 282 281 282 282 282
295 294 293 291 291 291 292 290 289 287 286 285 284 283 281 280 280 279 279 279 279 280 278 278 277 277 277 278 278 279 279 280 281 281 281 281 281 282
293 291 290 290 290 291 289 288 287 285 284 283 283 281 280 280 279 278 278 278 279 279 279 278 278 277 277 277 277 279 279 280 280 280 280 280 281 282
290 289 290 290 288 286 285 284 284 283 283 282 281 281 280 279 279 279 278 278 278 278 278 278 278 278 278 279 279 279 279 280 279 279 280 281 281 281
289 289 290 288 285 284 284 283 282 281 281 281 281 280 279 279 279 279 278 278 278 278 278 278 278 278 278 279 278 279 278 277 278 279 280 279 280 280
290 289 287 286 285 284 283 283 281 280 280 280 280 279 278 278 278 278 278 277 278 278 277 277 278 278 277 278 277 277 278 278 278 278 279 279 279 280
289 288 286 285 284 283 282 281 281 280 280 279 277 277 277 277 278 278 277 277 277 277 277 277 277 277 276 276 278 278 278 278 278 278 278 279 280 280
286 286 284 284 283 282 281 281 280 279 278 277 277 277 277 277 277 277 277 277 277 277 277 277 277 277 277 278 278 278 278 278 278 278 279 279 279 281
284 283 282 281 281 281 281 280 279 278 277 277 277 277 277 277 277 277 277 277 277 277 277 276 276 277 278 278 278 277 278 277 278 278 279 280 280 280
Wind_Speed
29 26 24 19 15 13 11 11 6 3 5 8 6 12 15 15 15 13 14 16 16 17 18 18 19 21 23 23 23 25 25 25 26 28 29 30 31 32
31 26 24 22 20 17 16 13 12 6 2 4 8 8 11 13 14 14 14 15 18 17 19 19 20 23 22 21 27 27 27 27 28 29 30 31 31 30
33 31 26 23 22 20 18 17 15 13 7 7 9 11 10 11 13 14 14 15 17 18 18 20 21 21 18 26 28 28 28 29 28 29 29 27 28 30
36 33 34 27 23 21 20 19 18 18 13 10 11 12 12 12 13 14 14 16 17 17 18 21 21 16 24 27 28 27 29 30 29 26 24 27 29 32
33 33 32 29 28 25 23 21 20 19 17 12 8 10 9 12 12 14 15 17 18 17 18 19 13 22 26 26 25 29 31 30 21 26 28 29 31 32
30 32 28 34 33 30 28 27 23 19 17 14 10 9 9 10 12 11 11 12 14 16 18 14 17 26 25 26 28 32 31 23 25 27 30 30 33 34
35 37 34 36 35 36 36 33 29 26 19 14 12 9 10 9 11 7 8 11 15 14 12 14 22 24 25 26 31 33 28 20 27 29 29 31 34 37
34 34 34 34 34 34 36 34 35 33 28 16 15 15 13 12 11 9 8 6 5 9 11 29 17 21 21 30 34 30 24 25 31 28 31 35 37 38
31 31 30 30 30 30 32 33 35 33 30 29 20 17 12 15 12 11 10 8 9 13 14 17 23 19 24 35 30 23 19 30 32 34 36 36 38 39
28 27 28 26 25 29 30 28 28 26 26 28 24 18 19 17 15 12 10 9 13 12 8 6 15 21 29 32 21 15 28 31 29 36 35 37 41 42
22 23 25 23 24 22 26 29 27 25 23 24 20 21 18 14 13 10 6 3 5 5 7 5 11 24 20 20 15 21 27 30 30 32 36 37 42 41
22 21 23 22 21 22 25 27 25 26 27 23 17 13 12 10 9 8 6 4 3 6 3 9 15 14 11 9 14 30 29 24 29 36 30 32 37 41
22 23 23 23 21 20 22 24 29 24 22 24 21 18 14 12 10 7 6 6 5 7 7 10 10 14 11 16 17 28 18 34 34 33 26 28 35 39
25 26 25 22 19 18 23 19 18 18 24 24 23 18 15 12 10 8 6 8 10 12 15 12 9 14 18 23 18 26 31 32 29 29 29 37 36 39
24 23 19 15 16 16 21 18 15 20 24 22 20 19 16 12 8 7 5 9 12 13 11 11 12 16 18 20 23 31 34 28 28 29 37 34 40 41
17 12 12 15 18 17 20 20 23 21 20 19 21 19 14 12 8 6 5 8 12 8 11 11 14 15 20 24 26 33 30 21 39 38 39 40 36 37
18 17 17 18 19 20 22 24 23 17 17 21 21 17 13 9 7 4 4 6 7 11 14 13 16 18 21 23 24 25 29 32 35 40 43 43 36 40
21 21 20 21 21 24 25 23 22 19 19 20 18 14 10 8 5 3 2 4 8 11 15 18 20 20 15 11 14 21 29 32 39 38 37 41 46 48
19 20 19 20 21 21 21 22 18 18 21 19 17 14 11 8 6 2 2 4 8 10 12 15 15 16 13 9 20 18 27 39 39 38 36 36 41 52
23 19 18 20 22 23 21 19 19 18 15 13 12 12 12 8 5 3 1 5 8 12 13 12 12 14 16 13 19 36 27 33 35 39 43 40 41 43
23 23 23 23 23 22 22 22 22 18 16 15 14 13 10 6 4 2 2 6 9 11 13 15 19 18 20 20 18 26 29 30 32 37 42 38 33 40
23 24 23 24 25 25 25 25 22 20 20 17 15 12 9 7 4 2 3 6 9 11 15 21 22 21 18 18 21 27 32 34 38 36 31 27 28 13
20 19 19 20 22 25 26 25 21 18 17 15 14 12 9 6 4 3 4 6 9 13 16 20 20 18 19 19 24 25 29 34 33 36 46 34 30 36
Wind_Direction
209 209 211 208 204 200 196 178 163 171 220 214 197 226 229 238 241 240 247 268 286 305 313 316 318 319 320 318 319 316 314 313 312 311 309 308 306 305
213 210 211 212 212 209 208 202 207 194 203 216 210 221 219 230 242 239 253 274 290 305 311 314 316 317 317 320 320 316 314 314 313 311 310 308 306 306
216 214 215 212 210 212 213 212 214 212 204 227 218 219 222 229 243 249 260 276 290 304 309 311 314 315 319 320 318 318 319 314 313 310 309 307 306 307
217 217 220 215 215 216 216 218 218 220 211 212 219 226 225 237 235 247 260 275 285 296 304 307 311 311 321 320 320 324 319 316 313 312 315 313 308 306
219 219 217 215 217 217 219 219 221 224 216 213 204 217 227 239 246 253 262 272 281 292 303 305 307 318 321 319 322 326 320 321 322 326 316 310 308 307
220 222 217 219 221 219 220 221 218 219 221 221 213 208 212 236 240 251 266 274 284 299 301 295 310 321 322 321 324 328 322 323 328 322 317 312 309 308
226 231 230 232 233 232 229 225 222 218 212 211 223 218 207 211 231 234 257 282 294 285 288 293 315 317 322 320 326 325 316 317 326 317 312 312 309 307
228 231 234 237 238 237 241 242 240 227 216 204 217 223 222 221 223 232 253 290 298 284 309 308 312 315 318 319 328 320 313 322 325 319 316 312 310 311
232 235 232 234 235 238 240 241 242 243 242 237 222 225 226 221 220 228 240 252 266 289 312 299 321 312 316 321 326 315 315 323 328 325 316 312 312 311
230 233 235 235 237 232 230 231 233 231 231 234 235 237 235 234 231 238 244 265 288 301 288 276 315 307 315 320 319 303 315 322 318 316 312 310 309 311
219 225 230 232 235 235 230 227 225 232 230 233 233 234 236 227 229 235 239 267 300 283 301 311 314 315 309 299 299 305 309 310 314 310 311 310 314 312
219 223 227 228 230 226 222 219 213 218 224 217 207 203 198 206 213 222 240 245 273 297 313 332 322 345 323 272 288 306 313 309 309 310 310 307 309 310
209 213 218 219 222 224 222 222 225 222 210 209 197 194 197 205 217 228 239 263 253 260 291 338 304 319 296 302 302 309 307 310 312 313 312 308 308 309
221 224 221 213 210 207 205 215 213 211 194 191 195 189 192 201 209 223 252 273 275 280 301 304 282 299 298 303 298 305 314 316 316 310 314 314 313 311
218 219 215 203 200 196 200 203 190 195 189 183 183 192 196 198 200 230 259 276 289 301 300 304 290 293 294 284 289 302 319 319 315 318 316 316 313 312
211 209 199 187 186 192 185 189 190 194 193 185 185 189 185 180 197 229 259 295 311 313 312 310 312 304 293 288 291 296 308 310 313 317 317 315 315 312
186 173 163 159 163 164 170 179 180 183 179 189 182 172 176 185 199 226 277 310 306 315 318 317 315 309 293 294 292 299 306 310 314 318 322 318 318 314
177 162 161 164 163 163 161 158 171 174 179 175 168 170 179 185 196 219 285 310 314 320 319 324 327 331 326 316 288 298 309 314 317 320 322 319 317 318
168 168 165 162 161 162 161 160 156 167 171 169 171 171 180 191 185 195 273 313 312 314 316 320 328 335 330 319 304 324 318 314 316 318 319 316 310 309
179 168 160 163 163 160 162 158 159 165 165 169 169 174 180 180 187 197 264 311 316 315 315 319 325 330 322 311 305 304 326 312 315 315 316 316 308 307
166 163 166 168 165 163 163 167 171 165 167 165 167 176 182 184 202 230 296 307 315 315 316 316 322 322 316 316 300 306 316 321 317 316 316 321 320 316
167 169 170 171 168 170 172 173 167 163 165 169 173 179 183 188 201 225 285 307 318 318 311 315 326 332 325 316 311 313 315 322 327 325 319 313 307 305
164 162 159 164 169 171 173 166 162 163 168 170 173 175 178 187 208 235 290 312 317 316 320 320 323 325 318 316 318 316 321 324 328 329 325 332 319 313